Stations météo

réclame
Mon MeteoGroup
Javea, Espagne (8370): Température de l'air & dewpoint: 11.07.2018 13:00:00 - 17.07.2018 13:00:00 (CEST)Javea, Espagne (8370): Vitesse du vent & gusts: 11.07.2018 13:00:00 - 17.07.2018 13:00:00 (CEST)Javea, Espagne (8370): Direction du vent: 11.07.2018 13:00:00 - 17.07.2018 13:00:00 (CEST)Javea, Espagne (8370): reduced air pressure: 11.07.2018 13:00:00 - 17.07.2018 13:00:00 (CEST)Javea, Espagne (8370): visibility: 11.07.2018 13:00:00 - 17.07.2018 13:00:00 (CEST)Javea, Espagne (8370): Ensoleillement: 11.07.2018 13:00:00 - 17.07.2018 13:00:00 (CEST)Javea, Espagne (8370): Quantités de précipitations: 11.07.2018 13:00:00 - 17.07.2018 13:00:00 (CEST)
Date & Time tt [°C] td [°C] ff [km/h] ff [knt] fx [km/h] fx [knt] dd ppp [hPa] vv [km] sd [min] rr [mm]
17.07.2018 13:00:00 29,0 20,5 11 6 20 11 ENE 1018,4 - 60 0,0
17.07.2018 12:00:00 29,1 18,8 11 6 22 12 ENE 1018,5 - 60 0,0
17.07.2018 11:00:00 29,4 16,6 10 6 21 11 ENE 1018,5 - 52 0,0
17.07.2018 10:00:00 29,1 16,3 7 4 15 8 ENE 1018,4 - 27 0,0
17.07.2018 09:00:00 25,9 17,8 7 4 11 6 W 1018,1 - 57 0,0
17.07.2018 08:00:00 25,0 21,7 5 3 15 8 NE 1017,7 - 4 -
17.07.2018 07:00:00 20,9 18,5 3 2 13 7 S 1017,4 - 0 0,0
17.07.2018 06:00:00 22,0 19,3 9 5 16 9 WSW 1016,7 - 0 0,0
17.07.2018 05:00:00 22,3 19,3 5 3 14 7 SW 1016,8 - 0 0,0
17.07.2018 04:00:00 21,8 17,8 8 5 15 8 WSW 1016,8 5 0 0,0
17.07.2018 03:00:00 22,4 15,5 4 2 13 7 N 1017,0 - 0 0,0
17.07.2018 02:00:00 24,3 16,3 8 4 17 9 WSW 1016,7 - 0 -
17.07.2018 01:00:00 24,6 16,8 8 5 22 12 WSW 1016,7 - 0 0,0
17.07.2018 00:00:00 24,8 16,7 6 3 20 11 SW 1016,6 - 0 0,0
16.07.2018 23:00:00 25,4 14,8 8 4 19 11 W 1016,2 - 0 0,0
16.07.2018 22:00:00 26,0 13,5 3 2 28 15 W 1015,7 - 5 0,0
16.07.2018 21:00:00 28,0 12,3 13 7 40 22 SW 1015,3 - 58 0,0
16.07.2018 20:00:00 29,8 11,8 19 10 42 23 SSW 1014,9 - 60 -
16.07.2018 19:00:00 31,3 13,1 19 10 41 22 SSW 1014,6 - 59 0,0
16.07.2018 18:00:00 32,2 13,5 19 11 38 20 SSW 1014,8 - 60 0,0
16.07.2018 17:00:00 34,2 13,7 16 9 31 17 SSW 1015,1 - 60 0,0
16.07.2018 16:00:00 34,5 11,0 8 5 34 18 SE 1014,9 - 60 0,0
16.07.2018 15:00:00 35,9 6,1 15 8 35 19 N 1015,1 - 60 0,0
16.07.2018 14:00:00 35,8 7,0 13 7 40 21 N 1015,2 - 60 -
16.07.2018 13:00:00 34,4 5,0 19 10 40 22 WNW 1014,9 - 60 0,0
16.07.2018 12:00:00 32,8 5,3 20 11 45 24 W 1014,4 - 60 0,0
16.07.2018 11:00:00 31,6 5,9 17 9 42 23 W 1014,4 - 52 0,0
16.07.2018 10:00:00 29,7 5,8 24 13 42 23 W 1014,4 - 28 0,0
16.07.2018 09:00:00 28,1 6,8 16 9 40 21 W 1014,4 - 60 0,0
16.07.2018 08:00:00 27,1 5,3 22 12 44 24 W 1013,8 - 19 -
16.07.2018 07:00:00 26,6 6,1 20 11 44 24 W 1012,9 - 0 0,0
16.07.2018 06:00:00 27,4 6,2 21 12 48 26 W 1012,2 - 0 0,0
16.07.2018 05:00:00 27,5 6,8 19 10 36 19 W 1011,9 - 0 0,0
16.07.2018 04:00:00 22,5 20,3 9 5 14 8 WSW 1012,1 1,3 0 0,0
16.07.2018 03:00:00 23,6 20,5 5 3 11 6 WSW 1012,0 1,3 0 0,0
16.07.2018 02:00:00 24,7 21,2 4 2 14 8 S 1012,9 1,3 0 -
16.07.2018 01:00:00 24,7 20,6 5 3 15 8 SW 1012,8 1,2 0 0,0
16.07.2018 00:00:00 24,7 21,2 5 3 28 15 SSW 1012,4 1,8 0 0,0
15.07.2018 23:00:00 25,0 21,1 10 6 25 13 WSW 1012,1 1,5 0 0,0
15.07.2018 22:00:00 25,2 20,9 13 7 37 20 SSW 1011,0 2,7 0 0,0
15.07.2018 21:00:00 26,4 19,6 13 7 28 15 WSW 1011,8 2,9 0 0,0
15.07.2018 20:00:00 28,0 18,4 12 7 26 14 SSW 1011,4 - 32 -
15.07.2018 19:00:00 30,7 17,4 10 6 31 17 SW 1012,2 - 45 0,0
15.07.2018 18:00:00 30,9 19,3 13 7 33 18 SSW 1012,8 - 49 0,0
15.07.2018 17:00:00 29,1 18,8 9 5 34 18 SSW 1013,0 - 22 0,0
15.07.2018 16:00:00 30,6 19,9 18 10 35 19 S 1013,7 - 51 0,0
15.07.2018 15:00:00 34,9 15,3 19 11 29 15 SSE 1013,8 - 60 0,0
15.07.2018 14:00:00 34,7 12,4 8 4 18 10 ESE 1014,5 - 60 -
15.07.2018 13:00:00 34,8 13,1 7 4 20 11 E 1015,0 - 60 0,0
15.07.2018 12:00:00 33,6 14,1 10 5 18 10 SSE 1015,4 - 60 0,0
15.07.2018 11:00:00 30,8 17,5 5 3 21 12 SW 1015,6 - 60 0,0
15.07.2018 10:00:00 28,3 20,9 11 6 23 13 SSW 1016,1 - 60 0,0
15.07.2018 09:00:00 26,0 21,9 8 4 18 10 SSW 1015,9 2,3 45 0,0
15.07.2018 08:00:00 23,1 21,4 3 2 14 7 W 1015,4 2,6 0 -
15.07.2018 07:00:00 21,5 20,0 8 4 13 7 WSW 1015,0 2,8 0 0,0
15.07.2018 06:00:00 21,1 18,8 5 3 12 7 W 1015,1 3,0 0 0,0
15.07.2018 05:00:00 21,4 18,6 5 3 10 5 SW 1015,0 3,2 0 0,0
15.07.2018 04:00:00 23,1 20,1 2 1 10 5 W 1015,2 3,1 0 0,0
15.07.2018 03:00:00 24,1 20,7 2 1 13 7 SSW 1015,4 3,1 0 0,0
15.07.2018 02:00:00 24,8 21,1 1 1 13 7 SSW 1015,6 2,8 0 -
15.07.2018 01:00:00 25,0 19,6 3 2 25 13 W 1016,1 4,9 0 0,0
15.07.2018 00:00:00 26,0 19,1 14 8 31 17 SSW 1015,6 4,3 0 0,0
14.07.2018 23:00:00 25,6 19,0 4 2 23 12 SSW 1015,4 2,8 0 0,0
14.07.2018 22:00:00 26,0 20,1 11 6 22 12 SW 1014,8 2,8 0 0,0
14.07.2018 21:00:00 27,7 19,8 8 4 23 12 SSW 1014,8 - 44 0,0
14.07.2018 20:00:00 29,1 19,7 13 7 34 18 SSW 1014,7 - 57 -
14.07.2018 19:00:00 30,5 18,9 13 7 39 21 SSW 1014,9 - 59 0,0
14.07.2018 18:00:00 30,8 19,8 21 11 40 21 S 1015,4 - 60 0,0
14.07.2018 17:00:00 32,8 17,9 15 8 35 19 SSW 1015,7 - 60 0,0
14.07.2018 16:00:00 32,6 18,8 21 11 40 22 S 1016,0 - 60 0,0
14.07.2018 15:00:00 33,0 19,1 15 8 34 18 SSW 1016,7 - 60 0,0
14.07.2018 14:00:00 31,8 18,4 20 11 36 19 S 1017,4 - 60 -
14.07.2018 13:00:00 31,8 19,4 17 9 27 15 S 1017,5 - 60 0,0
14.07.2018 12:00:00 31,3 18,6 13 7 24 13 S 1017,4 - 60 0,0
14.07.2018 11:00:00 30,2 18,6 9 5 19 10 S 1017,5 - 51 0,0
14.07.2018 10:00:00 29,1 18,2 4 2 11 6 S 1017,6 - 28 0,0
14.07.2018 09:00:00 26,2 18,6 4 2 11 6 W 1017,4 - 52 0,0
14.07.2018 08:00:00 23,2 18,5 8 5 13 7 WSW 1016,9 6 14 -
14.07.2018 07:00:00 21,6 18,2 5 3 9 5 SSW 1016,3 6 0 0,0
14.07.2018 06:00:00 22,5 18,5 5 3 14 8 SSW 1016,1 6 0 0,0
14.07.2018 05:00:00 23,5 19,1 8 5 25 13 SW 1016,0 6 0 0,0
14.07.2018 04:00:00 24,2 20,3 6 3 18 10 W 1016,2 6 0 0,0
14.07.2018 03:00:00 24,4 20,5 6 3 19 11 WNW 1016,4 6 0 0,0
14.07.2018 02:00:00 24,7 20,6 7 4 21 12 WNW 1016,5 6 0 -
14.07.2018 01:00:00 24,9 20,8 5 3 15 8 WNW 1016,9 6 0 0,0
14.07.2018 00:00:00 25,2 21,7 4 2 16 8 NNW 1016,8 6 0 0,0
13.07.2018 23:00:00 25,4 21,7 7 4 20 11 N 1016,4 6 0 0,0
13.07.2018 22:00:00 25,8 21,4 13 7 22 12 N 1015,6 6 0 0,0
13.07.2018 21:00:00 26,2 21,4 11 6 24 13 N 1015,5 6 8 0,0
13.07.2018 20:00:00 27,3 21,3 13 7 30 16 NNE 1015,2 6 60 -
13.07.2018 19:00:00 27,8 21,1 19 10 31 17 N 1015,4 - 51 0,0
13.07.2018 18:00:00 28,4 21,2 16 9 37 20 N 1015,8 - 33 0,0
13.07.2018 17:00:00 29,0 21,3 19 11 34 18 N 1015,8 - 48 0,0
13.07.2018 16:00:00 30,1 21,2 21 11 36 20 N 1016,1 - 58 0,0
13.07.2018 15:00:00 30,2 20,5 21 11 40 22 NNE 1016,3 - 58 0,0
13.07.2018 14:00:00 30,1 21,2 20 11 33 18 NNE 1016,3 - 55 -
13.07.2018 13:00:00 28,6 21,4 17 9 31 17 N 1016,6 - 35 0,0
13.07.2018 12:00:00 29,2 21,4 19 10 34 18 N 1016,6 - 45 0,0
13.07.2018 11:00:00 28,5 21,5 20 11 37 20 N 1016,4 - 53 0,0
13.07.2018 10:00:00 28,1 21,9 16 9 34 18 N 1015,8 - 51 0,0
13.07.2018 09:00:00 26,7 21,9 18 10 34 19 N 1015,4 7 15 0,0
13.07.2018 08:00:00 25,6 21,7 19 10 35 19 NNE 1014,7 7 0 -
13.07.2018 07:00:00 25,2 21,7 19 10 39 21 N 1015,0 5 0 0,0
13.07.2018 06:00:00 25,1 21,0 12 6 39 21 N 1015,2 7 0 0,0
13.07.2018 05:00:00 25,1 21,6 14 8 34 18 N 1015,0 6 0 0,0
13.07.2018 04:00:00 25,2 21,3 13 7 24 13 N 1015,5 7 0 0,0
13.07.2018 03:00:00 25,3 21,0 11 6 26 14 N 1015,8 7 0 0,0
13.07.2018 02:00:00 25,5 21,6 10 5 21 11 N 1016,0 7 0 -
13.07.2018 01:00:00 25,6 21,9 10 5 22 12 N 1016,2 6 0 0,0
13.07.2018 00:00:00 25,9 22,4 11 6 21 11 N 1015,9 7 0 0,0
12.07.2018 23:00:00 25,6 22,1 10 6 18 10 N 1015,3 6 0 0,0
12.07.2018 22:00:00 26,1 20,7 9 5 18 10 N 1014,6 7 0 0,0
12.07.2018 21:00:00 27,1 20,2 10 5 22 12 N 1014,0 7 52 0,0
12.07.2018 20:00:00 28,6 20,9 11 6 22 12 N 1013,3 - 60 -
12.07.2018 19:00:00 28,6 20,9 15 8 25 14 NNE 1013,4 - 60 0,0
12.07.2018 18:00:00 29,6 19,6 13 7 27 14 NE 1013,6 - 60 0,0
12.07.2018 17:00:00 29,7 18,8 13 7 26 14 ENE 1013,9 - 60 0,0
12.07.2018 16:00:00 30,6 19,3 18 10 31 17 NNE 1014,2 - 60 0,0
12.07.2018 15:00:00 31,3 19,6 19 10 34 18 N 1014,3 - 60 0,0
12.07.2018 14:00:00 30,3 19,6 19 10 34 19 N 1014,4 - 57 -
12.07.2018 13:00:00 30,2 19,3 20 11 31 17 NNE 1014,8 - 57 0,0
12.07.2018 12:00:00 29,8 20,1 14 8 33 18 N 1015,1 - 36 0,0
12.07.2018 11:00:00 28,3 21,1 21 12 34 19 N 1014,6 - 13 0,0
12.07.2018 10:00:00 27,4 21,4 21 11 38 20 NNW 1014,1 6 15 0,0
12.07.2018 09:00:00 26,0 20,8 11 6 28 15 NW 1013,7 4,9 10 0,0
12.07.2018 08:00:00 25,3 20,7 13 7 26 14 WNW 1013,3 4,3 0 -
12.07.2018 07:00:00 24,7 21,2 10 5 21 12 NW 1013,2 4,2 0 0,0
12.07.2018 06:00:00 24,6 21,1 9 5 23 12 NNW 1013,0 3,9 0 0,0
12.07.2018 05:00:00 24,3 21,3 9 5 18 10 N 1013,2 3,8 0 0,0
12.07.2018 04:00:00 23,9 21,1 8 4 15 8 NNW 1013,4 3,6 0 0,0
12.07.2018 03:00:00 24,0 20,9 5 3 10 6 N 1013,3 3,5 0 0,0
12.07.2018 02:00:00 24,2 20,9 6 3 11 6 N 1013,5 3,5 0 -
12.07.2018 01:00:00 24,3 20,8 4 2 16 8 NNE 1013,8 3,4 0 0,0
12.07.2018 00:00:00 24,8 20,9 9 5 16 9 NNE 1013,9 3,6 0 0,0
11.07.2018 23:00:00 24,0 19,9 1 1 9 5 W 1013,2 3,3 0 0,0
11.07.2018 22:00:00 25,1 20,1 5 3 17 9 S 1012,2 3,2 0 0,0
11.07.2018 21:00:00 26,9 20,0 6 4 16 9 SE 1011,8 - 30 0,0
11.07.2018 20:00:00 28,7 20,2 6 3 25 14 S 1011,9 - 57 -
11.07.2018 19:00:00 29,4 20,3 13 7 29 15 SSW 1011,9 - 59 0,0
11.07.2018 18:00:00 31,0 20,3 11 6 25 13 SSW 1011,6 - 60 0,0
11.07.2018 17:00:00 29,1 20,5 14 8 23 12 SSE 1012,3 - 19 0,0
11.07.2018 16:00:00 30,7 20,6 10 6 26 14 E 1012,9 - 48 0,0
11.07.2018 15:00:00 32,3 20,5 16 9 32 17 N 1013,2 - 60 0,0
11.07.2018 14:00:00 30,5 20,1 21 12 35 19 N 1013,8 - 60 -
11.07.2018 13:00:00 30,4 19,8 19 10 32 18 N 1013,8 - 60 0,0

tt = Température de l'air
td = dewpoint
ff = Vitesse du vent
fx = gusts
dd = Direction du vent
ppp = reduced air pressure
vv = visibility
sd = Ensoleillement
rr = Quantités de précipitations

stations d'obs. à proximité